RH
40 34 32 35 39 49 58 62 64 63 61 57 50 44 41 37 33 29 27 28 28 28 27 27 26 26 29 30 31 33 34 37 38 38 38 39 41 43 46 47 48 46 44 42 40 39 33 39 55 60 67 70 68 74 79 77 73 75 78 80 82 83 83 81 70 54 41 36 41 50 55 55 54 53 52 52 53 58 63 63 61 61 60 58 56
37 32 33 35 42 55 61 62 62 57 50 45 39 34 30 26 23 23 23 23 24 25 27 26 26 25 25 24 23 23 22 23 24 25 28 31 32 35 39 41 43 42 42 43 43 43 37 39 51 61 72 75 73 76 77 76 75 75 75 77 83 83 81 79 70 58 49 43 39 47 56 57 56 55 53 52 53 57 63 64 62 62 62 60 57
34 30 31 37 49 60 63 61 55 45 37 34 31 28 24 22 22 24 24 24 24 24 25 24 23 21 19 17 16 14 14 13 14 16 19 23 26 30 35 40 44 47 49 52 52 51 49 50 57 65 74 79 78 74 69 71 77 78 75 76 81 84 81 78 74 66 59 52 44 46 55 60 58 57 56 53 52 55 60 64 63 62 63 61 58
30 26 29 43 58 62 59 53 44 35 29 28 26 24 22 22 25 28 28 27 24 22 20 17 16 18 18 15 14 15 16 17 19 21 24 27 31 36 40 46 51 55 56 57 58 59 60 61 66 69 70 72 70 66 62 65 72 76 73 71 76 83 84 81 79 73 66 59 51 48 53 60 61 61 60 55 52 52 57 62 62 62 63 62 58
26 25 38 57 63 59 54 47 37 29 26 27 26 24 26 29 31 30 26 21 18 16 13 12 16 21 19 14 14 18 20 21 23 25 27 30 34 38 41 45 48 52 54 56 58 61 61 58 59 61 60 57 57 63 68 64 65 70 70 69 72 79 83 84 84 80 74 66 58 53 53 59 62 64 65 61 54 50 54 59 60 61 63 62 59
29 39 57 66 61 57 51 40 29 26 33 38 34 31 33 31 27 21 17 14 12 11 11 14 19 19 15 13 15 18 20 21 22 23 25 28 31 34 37 40 42 43 44 48 52 55 56 54 57 59 57 54 54 62 68 64 63 68 71 74 77 80 84 85 84 81 78 73 68 61 58 60 63 65 67 65 59 52 51 56 58 60 62 62 59
42 59 69 64 59 55 43 31 31 39 48 47 40 38 33 24 18 15 13 12 11 12 13 15 16 13 11 12 14 15 16 19 21 21 23 24 26 28 32 35 36 36 36 40 44 48 50 51 53 55 56 58 58 58 60 61 63 65 68 73 77 80 83 83 83 83 82 79 77 74 72 71 69 67 68 69 64 56 51 54 57 58 61 62 58
56 69 70 62 54 44 34 35 43 51 50 43 38 35 27 18 15 15 13 12 12 13 14 14 12 11 11 11 12 12 12 14 16 17 20 22 22 22 23 24 24 26 30 34 38 41 43 44 45 47 50 53 55 53 52 51 53 61 68 70 72 76 78 79 82 83 82 81 82 86 88 85 79 74 72 74 69 59 54 54 56 57 59 61 58
65 71 69 56 41 35 36 40 44 46 41 32 27 24 19 16 15 14 13 13 13 13 13 13 13 13 12 13 13 12 12 12 12 14 15 16 16 16 15 15 16 18 21 25 29 33 37 39 40 42 43 45 46 44 41 37 34 44 58 62 66 71 73 77 80 78 78 79 82 89 92 88 87 84 80 81 76 66 58 56 57 57 58 60 58
69 70 62 43 34 39 42 39 38 36 29 21 18 17 16 16 15 14 14 13 13 14 14 14 15 15 14 14 14 13 13 13 13 14 14 14 14 14 15 15 15 16 17 19 22 26 30 33 36 38 39 40 42 40 35 31 26 27 37 46 54 62 69 74 73 73 78 82 82 86 89 87 89 90 86 84 82 75 65 58 57 58 58 58 58
72 67 55 39 39 50 48 39 33 26 20 18 18 18 17 16 15 15 15 15 15 15 17 17 18 17 16 15 15 15 14 14 14 14 14 15 15 15 16 16 16 17 18 19 19 21 23 25 27 29 32 34 35 36 32 29 26 23 26 33 39 46 57 66 66 70 77 81 81 83 86 85 87 89 88 87 85 82 75 65 58 58 59 59 57
71 61 52 48 51 55 48 35 26 22 20 20 19 18 17 17 16 15 15 16 17 18 19 20 20 20 18 16 15 16 15 15 15 15 15 16 16 16 16 16 17 18 19 19 19 19 20 21 21 22 24 26 27 29 28 26 25 23 23 27 30 33 40 48 55 65 73 76 79 82 82 82 85 87 88 88 86 84 81 74 64 58 60 60 57
66 56 55 59 55 46 36 27 23 23 22 20 19 18 18 17 16 16 16 17 18 20 20 19 20 21 21 19 18 18 17 17 17 17 17 17 18 18 17 18 18 19 19 19 19 18 19 19 19 20 21 22 23 24 25 25 24 24 23 23 26 29 32 35 41 54 70 78 80 81 80 82 87 88 87 87 87 86 85 82 72 62 61 61 58
61 58 61 58 44 32 25 24 24 23 21 21 20 18 18 18 17 17 18 18 18 19 19 19 19 19 19 20 20 20 20 19 19 18 17 18 18 18 19 19 19 19 19 18 18 18 18 18 18 19 20 21 22 23 24 25 26 26 25 24 23 25 28 32 34 40 57 72 78 82 84 85 88 90 89 89 91 90 87 84 77 66 63 63 60
64 65 58 43 30 25 24 24 23 22 22 21 20 19 19 18 17 18 18 18 18 18 19 19 19 18 17 17 17 18 19 19 19 18 18 18 19 20 20 20 19 18 18 17 16 17 17 17 18 18 19 20 21 22 23 24 25 26 26 26 25 24 25 29 32 33 40 52 63 74 82 85 86 86 86 87 88 89 88 87 82 72 66 66 63
61 56 42 29 24 24 23 23 23 23 23 21 20 20 19 18 19 19 18 18 18 20 20 19 18 16 14 13 12 12 12 13 14 14 14 15 16 18 18 19 19 19 18 17 17 17 17 17 17 17 18 19 19 20 21 22 23 24 25 26 25 26 25 26 29 29 32 39 47 58 70 79 80 79 83 87 86 87 90 90 87 78 69 67 65
48 37 29 25 24 23 23 23 23 23 23 21 20 19 18 19 19 19 18 19 20 21 20 19 18 15 12 10 8 7 6 6 6 6 6 7 7 8 10 11 12 13 14 14 14 14 14 14 13 12 12 13 13 14 15 15 17 18 21 23 25 26 26 26 26 26 26 34 42 49 55 65 73 75 81 88 89 89 89 89 89 84 75 69 65
41 29 25 25 23 23 24 24 24 24 23 21 19 19 19 19 19 19 19 20 21 21 20 20 18 16 13 11 8 6 5 4 4 2 1 1 1 2 2 3 3 4 4 4 5 5 5 5 4 4 4 4 4 4 5 5 6 8 9 13 17 20 24 26 27 26 25 27 36 46 49 54 66 75 80 85 88 91 90 88 91 90 84 78 73
36 26 24 24 23 24 24 24 24 23 22 20 20 20 19 19 18 19 21 21 21 20 20 20 19 18 16 14 11 9 7 5 4 3 2 1 1 1 0 0 0 0 1 0 1 1 1 1 0 1 1 0 1 0 0 1 1 1 1 2 4 7 12 17 21 25 27 25 27 37 48 56 64 71 79 83 85 89 91 90 92 91 86 82 78
30 25 25 24 24 25 24 24 23 21 21 21 20 20 18 18 19 21 22 21 20 20 21 21 20 19 17 15 13 11 9 7 5 4 3 2 1 1 1 1 1 0 1 1 1 1 0 1 0 1 1 0 1 0 0 1 0 0 0 0 0 0 2 4 9 15 21 26 26 27 35 48 62 68 72 75 77 82 86 89 92 88 87 86 79
28 27 25 24 24 25 24 23 21 21 22 21 21 19 18 19 20 22 21 20 20 21 21 20 20 19 17 16 15 13 11 8 6 3 2 2 2 1 1 1 1 1 1 1 1 1 1 1 1 1 1 1 1 1 1 1 1 1 0 0 0 1 0 0 1 3 8 16 23 27 26 30 45 61 70 71 70 77 82 85 90 87 87 89 85
30 28 25 24 24 24 22 21 21 22 23 22 21 19 19 20 21 21 20 20 20 21 21 21 19 18 17 16 14 12 9 6 4 2 1 1 1 1 1 1 1 1 1 1 1 1 1 1 1 1 1 1 1 1 1 1 1 0 1 1 0 0 1 0 0 0 1 3 9 19 25 25 28 42 64 74 71 76 81 80 84 88 89 88 90
31 27 25 24 24 22 22 22 23 24 23 21 20 18 19 20 21 20 20 20 20 21 21 20 19 18 17 15 13 11 8 5 3 2 1 1 1 1 1 1 1 1 1 1 1 1 1 1 1 1 1 1 1 1 1 1 1 1 1 1 1 1 1 1 1 0 0 1 1 4 13 22 25 28 46 68 76 76 76 76 80 86 90 91 92
29 26 25 24 22 22 22 23 24 23 21 20 19 19 19 20 20 20 20 20 21 21 20 20 19 18 16 15 14 12 9 6 3 2 1 1 1 1 1 1 1 1 1 1 1 1 1 1 1 1 1 1 1 1 1 1 1 1 1 1 1 1 1 1 1 1 0 0 1 0 1 7 18 24 30 47 70 79 76 75 81 81 82 89 92
29 26 24 23 22 22 23 23 22 21 20 19 19 19 19 20 20 20 20 20 20 20 20 19 18 17 16 15 13 10 7 5 3 2 1 1 1 1 1 1 1 1 1 1 1 1 1 1 1 1 1 1 1 1 1 1 1 1 1 1 1 1 1 1 0 1 1 0 0 1 1 0 4 14 22 28 48 73 80 77 78 77 77 82 86
28 26 24 23 22 22 22 21 20 20 20 20 19 19 19 19 19 20 20 20 20 20 19 18 16 15 14 12 10 7 5 3 2 1 1 1 1 1 1 1 1 1 1 1 1 1 1 1 1 1 1 1 1 1 1 1 1 1 1 1 1 1 1 1 1 1 1 1 1 0 1 1 -1 2 11 18 28 50 70 80 80 77 78 80 79
28 26 25 24 23 22 21 20 21 21 21 20 20 19 19 20 20 20 21 20 20 20 18 15 13 12 10 8 6 5 3 3 1 1 1 1 1 1 1 1 1 1 1 1 1 1 1 1 1 1 1 1 1 1 1 1 1 1 1 1 1 1 1 1 1 1 1 0 1 1 0 1 2 -1 1 8 16 28 45 65 79 81 77 74 74
29 26 26 26 25 24 23 23 23 22 21 20 20 20 20 20 21 21 21 21 20 18 15 12 10 9 7 5 4 3 3 2 1 1 1 1 2 2 2 1 2 2 1 2 1 2 1 1 2 1 1 1 1 1 1 1 1 1 1 1 1 1 1 1 1 0 1 1 0 1 1 0 1 1 0 0 5 14 24 40 61 78 80 74 77
29 27 28 27 27 27 27 27 26 24 23 22 21 21 21 21 22 22 22 20 18 15 12 9 7 6 4 4 3 2 2 1 1 2 1 2 2 2 2 2 2 2 2 2 2 2 2 1 2 2 2 2 1 2 1 1 1 1 1 1 1 1 1 1 2 1 0 2 1 0 1 1 0 0 1 0 -1 3 11 21 38 65 84 83 80
29 28 29 28 29 30 30 31 30 28 27 25 24 23 23 23 23 23 20 17 14 11 8 6 5 4 3 3 3 1 1 2 1 2 2 2 2 2 2 2 2 2 2 2 2 2 2 2 2 2 2 2 1 1 2 1 1 1 1 1 1 1 1 0 1 1 1 1 1 1 0 1 1 0 0 1 1 0 2 9 20 44 74 87 83
33 32 32 32 32 32 33 34 34 33 32 30 27 25 25 25 24 21 18 14 10 7 5 4 4 4 3 2 2 1 2 2 2 2 2 2 2 2 2 2 2 3 2 2 2 2 2 2 2 2 2 2 2 1 1 1 1 1 1 1 1 1 1 1 1 1 2 1 1 1 1 1 1 1 1 0 1 1 -1 2 7 22 49 70 78
38 37 37 37 37 37 37 38 38 38 36 33 30 28 27 26 23 19 14 10 6 3 3 4 3 3 2 1 2 2 2 2 2 3 3 3 3 2 3 3 3 3 3 3 3 2 3 2 2 2 2 2 2 2 2 2 1 2 2 2 3 4 4 4 4 3 2 2 2 1 1 1 1 1 1 1 0 1 1 0 1 7 22 41 55
41 40 42 44 43 42 42 43 43 42 39 36 32 29 28 25 20 15 10 6 3 2 2 3 2 2 2 1 2 2 2 3 3 3 3 3 3 3 3 3 3 3 3 3 3 3 3 3 3 2 2 2 2 2 2 2 2 2 4 6 8 10 13 14 14 13 9 5 3 3 2 2 2 2 2 1 1 0 1 1 0 1 6 19 32
42 44 48 50 48 48 48 48 48 46 42 38 33 30 26 22 15 9 6 3 2 2 2 2 2 2 2 2 2 3 3 3 3 3 3 3 3 3 3 3 3 3 3 3 3 3 3 3 3 3 3 2 2 2 2 2 2 1 4 11 16 20 24 27 27 28 25 19 13 9 8 7 6 5 4 3 2 1 1 1 1 0 0 5 16
45 50 55 55 53 52 52 52 51 48 44 38 33 28 22 16 9 4 3 2 2 2 2 2 2 2 2 2 3 3 3 3 3 3 3 3 4 4 4 4 4 3 4 4 3 4 4 3 3 3 3 3 2 2 2 2 2 2 5 15 24 30 35 38 37 37 37 34 28 22 19 18 16 13 10 8 6 3 1 1 1 1 0 0 6
48 53 57 58 56 56 56 55 53 48 43 37 30 23 16 10 4 2 2 2 2 2 2 2 2 2 2 3 3 4 4 3 4 4 4 4 4 4 4 4 4 4 4 4 4 4 4 4 4 3 3 3 3 2 2 2 2 2 7 17 27 34 42 46 44 41 40 39 38 35 31 29 27 24 20 16 12 9 4 1 0 1 1 0 1
51 56 60 61 61 61 60 57 53 48 40 32 24 17 11 5 2 2 2 2 2 2 2 2 2 2 3 3 4 4 3 3 4 4 4 4 4 4 4 4 5 5 5 5 5 5 5 4 4 4 3 3 3 3 2 2 2 1 6 18 30 36 42 47 46 42 40 38 38 39 39 37 35 32 29 25 20 16 11 5 2 1 1 1 0
55 61 65 67 66 64 61 58 53 45 35 26 19 12 6 3 2 2 2 2 2 2 2 2 2 3 4 4 4 4 4 4 4 4 4 5 4 4 5 5 5 5 5 5 5 5 5 5 4 4 4 3 3 3 3 2 2 3 5 16 32 41 43 44 44 41 39 38 39 42 43 43 42 39 37 33 28 22 17 12 6 2 1 2 0
64 70 72 71 68 64 61 57 50 40 29 21 13 7 3 2 2 2 2 2 2 2 2 2 3 4 4 4 4 4 4 4 4 4 4 4 5 5 5 5 5 5 5 6 6 5 5 5 5 5 4 4 4 3 3 2 2 5 11 21 34 41 44 47 47 43 42 45 47 49 51 51 50 47 43 40 37 31 24 18 12 7 4 3 2
73 76 75 72 68 64 60 54 45 33 23 14 7 3 2 2 2 3 2 2 2 2 3 3 4 4 4 4 4 4 4 4 4 5 5 5 5 5 5 6 6 6 6 6 6 6 6 5 6 5 5 5 4 4 3 3 1 5 18 34 44 45 46 54 59 53 49 52 56 58 60 57 55 53 50 47 45 39 32 24 18 12 8 6 4
76 76 74 71 67 63 58 49 38 26 16 8 4 2 2 2 2 2 2 2 3 2 3 4 4 4 4 4 4 4 4 4 5 5 5 6 6 6 6 6 6 7 7 7 7 7 7 6 6 6 6 5 5 4 4 3 3 8 23 40 52 55 56 63 69 65 57 59 62 64 66 60 54 54 54 53 51 45 39 32 26 19 13 10 7
75 74 73 70 66 61 54 43 30 19 10 5 2 2 2 2 2 2 2 3 3 3 3 4 4 4 4 4 4 4 5 5 5 6 6 6 6 7 7 7 8 8 8 9 9 8 8 8 7 6 6 6 6 5 4 3 3 10 25 43 54 61 64 67 72 72 67 63 59 59 63 59 50 48 51 52 50 46 41 38 35 29 20 15 11
75 74 72 68 64 58 48 34 21 12 6 3 2 2 2 2 2 2 3 3 3 4 4 5 4 4 4 4 5 5 5 6 6 6 7 8 8 8 9 10 10 10 10 11 10 10 10 9 8 8 7 7 7 6 5 4 3 8 25 46 59 67 71 72 76 77 73 65 57 56 61 59 53 53 55 53 49 46 43 40 39 38 31 23 18
76 73 70 66 61 51 39 25 14 7 4 2 3 3 2 2 2 3 3 3 3 4 5 4 4 4 4 5 5 5 6 6 7 8 8 9 10 10 12 13 14 14 14 14 13 13 12 11 10 9 8 8 7 7 6 4 3 7 21 42 61 72 79 81 82 80 74 67 62 63 68 69 65 61 60 61 58 53 52 49 43 41 39 31 25
76 72 69 64 56 44 30 17 8 4 3 3 3 3 2 2 3 3 3 4 4 5 5 4 4 4 5 5 5 6 7 7 8 9 10 10 12 13 15 16 17 17 18 18 18 17 16 14 13 11 10 9 8 8 7 6 4 5 15 33 53 70 82 86 83 80 76 70 67 70 75 76 70 61 59 66 68 60 57 60 58 51 45 38 32
75 71 66 60 50 35 21 11 4 2 3 3 2 2 2 2 3 3 3 4 5 5 5 4 4 5 5 6 6 6 8 9 10 10 11 12 13 15 17 18 18 19 20 20 20 20 20 18 16 14 12 11 10 9 8 7 5 4 10 24 41 59 78 85 82 80 79 75 73 74 76 75 73 68 58 56 62 64 60 63 67 62 53 45 37
73 68 63 57 45 27 13 5 2 2 3 3 2 3 3 3 3 3 4 5 5 5 5 4 5 5 5 6 7 7 9 10 11 11 12 13 14 16 19 19 19 20 20 20 21 22 23 23 20 17 15 12 11 11 9 8 7 5 8 17 29 45 63 77 82 81 78 78 77 76 74 74 80 85 71 57 69 85 78 70 71 65 57 51 44
70 66 60 50 35 18 7 3 2 3 3 3 2 3 3 3 4 4 5 5 5 5 4 5 5 5 6 7 7 9 10 10 12 12 13 14 15 17 19 19 20 21 21 21 23 24 25 26 24 21 18 15 13 11 10 9 8 6 6 9 18 30 45 64 78 81 79 79 82 82 79 79 85 88 79 71 84 97 86 74 75 69 57 52 48
66 62 53 39 22 8 3 2 3 3 2 2 3 3 3 4 4 4 5 6 5 5 4 5 6 6 7 8 8 10 11 11 12 13 14 15 16 17 18 18 20 22 22 22 23 24 25 27 28 26 22 18 15 13 12 10 9 8 6 5 10 19 30 47 67 81 82 80 84 88 85 85 88 84 78 79 90 98 85 70 71 71 62 56 51
63 56 42 25 11 4 2 3 3 3 3 3 3 3 3 4 4 5 6 5 5 5 5 5 6 7 7 8 9 11 11 12 13 14 14 15 16 16 17 18 19 20 20 21 22 24 25 26 27 28 26 23 19 15 14 11 9 9 8 6 7 11 19 33 52 73 83 81 85 92 89 87 90 89 89 92 95 97 86 67 62 61 53 51 51
62 51 31 13 4 2 3 4 3 3 3 3 3 3 4 4 5 5 6 5 5 5 5 6 7 7 8 9 10 11 12 13 13 14 15 15 16 16 16 18 19 19 19 21 22 23 25 25 26 27 27 27 24 19 16 14 11 10 9 8 7 7 12 21 34 57 78 83 87 93 93 92 92 92 97 99 96 97 89 73 70 65 44 36 39
Wind_Speed
13 12 12 12 11 11 11 11 10 9 9 9 9 8 8 8 9 9 10 10 12 12 13 14 15 16 17 18 18 18 19 19 19 19 19 18 17 17 17 17 18 18 19 19 19 20 20 19 18 20 21 22 23 21 22 22 21 21 20 18 17 17 17 16 16 16 16 17 17 17 16 15 15 15 15 15 14 14 13 13 12 11 12 12 11
13 13 12 12 11 12 12 11 9 9 8 7 8 8 8 9 10 10 11 12 13 13 14 15 16 17 17 18 18 19 19 19 19 19 19 18 17 17 18 18 18 18 18 18 18 18 19 18 18 19 20 22 22 21 22 22 21 20 20 19 17 17 16 15 16 16 16 16 17 17 17 16 15 15 15 15 15 14 13 13 12 12 12 12 11
13 12 12 12 12 12 11 9 8 7 7 7 7 8 9 10 11 11 12 13 13 13 13 13 14 15 16 17 18 18 18 18 18 17 17 17 16 16 16 17 17 17 17 17 17 17 17 18 18 19 20 21 20 20 21 21 21 19 19 19 18 17 17 16 15 16 17 17 16 17 17 17 16 15 15 15 15 15 14 13 13 12 12 12 12
13 13 12 12 13 11 9 8 7 6 6 7 8 9 9 9 9 9 10 11 11 12 12 12 13 14 14 15 15 15 15 15 15 15 15 14 14 14 14 15 15 15 16 16 17 17 16 17 17 18 19 20 21 21 21 20 20 19 18 18 17 17 17 16 16 16 17 17 17 16 17 17 17 16 15 15 15 15 14 13 13 13 13 13 13
13 13 13 13 12 10 8 7 7 6 6 6 7 7 7 7 7 8 9 10 11 12 12 12 12 13 14 14 13 13 13 13 14 14 14 13 13 13 14 14 15 16 16 17 17 17 17 17 18 18 18 19 20 21 20 19 18 19 19 18 16 17 17 18 18 17 17 17 17 17 16 17 18 17 16 16 16 16 15 14 13 13 13 13 13
14 14 13 12 10 8 7 7 6 5 4 5 6 6 6 7 8 9 10 11 12 12 12 12 12 14 15 14 14 13 13 13 13 13 13 13 14 14 14 15 15 16 17 17 17 17 17 18 18 19 19 19 19 19 20 20 18 19 19 18 16 16 17 18 19 18 18 18 18 19 18 17 18 18 17 16 16 17 16 15 14 14 14 14 13
14 14 13 11 9 8 7 6 5 4 4 5 6 6 7 8 9 10 11 12 12 12 11 11 12 13 14 14 14 13 14 14 14 14 14 14 14 15 15 15 16 16 17 17 17 18 18 18 18 18 19 19 18 18 19 20 20 19 19 19 18 17 16 18 19 19 19 20 20 20 20 18 18 18 18 17 16 17 17 16 16 15 15 15 14
14 13 11 10 8 7 6 5 4 4 5 6 6 7 8 8 8 10 11 11 11 11 11 10 11 12 13 13 13 14 14 14 15 15 15 15 15 16 16 16 16 17 17 17 18 18 19 19 19 19 19 18 18 18 18 18 19 19 20 20 20 19 18 18 18 19 20 21 21 21 21 20 20 18 18 17 17 17 17 16 16 16 15 16 15
13 12 10 8 7 5 5 4 5 5 5 6 7 8 8 8 8 9 9 9 9 10 10 10 11 12 13 13 13 14 14 14 14 15 15 16 16 16 16 17 17 18 18 18 18 19 20 20 21 21 21 20 20 19 19 18 18 18 20 21 21 20 19 19 19 19 20 21 22 22 22 22 22 20 19 18 18 18 17 17 17 17 16 17 17
12 11 9 8 6 4 4 4 5 5 5 6 7 8 8 8 8 8 8 8 8 9 9 10 11 12 12 13 13 14 14 14 14 15 16 16 16 16 17 17 18 19 19 20 20 21 21 22 22 22 22 22 22 21 21 20 19 19 19 20 21 21 21 20 20 19 20 20 21 22 22 23 23 23 21 20 20 19 18 18 18 18 17 18 18
11 10 8 7 5 5 5 5 5 4 5 5 6 7 8 7 7 7 7 7 8 8 9 10 11 12 13 12 13 14 15 14 15 16 16 16 17 17 18 19 20 20 21 21 23 23 23 23 23 23 23 24 24 24 23 22 21 20 20 20 21 22 22 22 21 20 20 20 20 21 23 23 23 24 24 21 21 21 20 19 19 19 18 19 19
10 9 7 6 6 6 6 5 4 4 4 5 6 6 6 7 7 7 7 7 8 9 10 10 12 13 14 14 13 14 15 16 16 17 17 17 17 18 19 20 21 22 22 23 24 25 25 25 24 24 24 25 25 25 25 25 24 23 21 21 21 22 23 23 22 22 22 21 21 21 22 23 22 24 25 24 23 22 22 21 20 20 20 20 20
9 8 7 6 6 6 6 5 4 4 4 5 6 5 5 6 7 7 8 8 9 10 11 11 12 12 14 15 15 15 16 16 17 17 17 18 19 19 20 20 21 22 23 25 26 27 27 26 26 26 27 26 26 26 27 27 27 26 24 22 22 22 22 23 22 21 22 23 22 21 21 21 22 24 25 25 24 24 24 23 22 22 21 21 21
9 8 8 7 7 6 5 5 4 4 4 5 5 5 5 6 7 7 8 8 9 10 11 12 12 12 12 13 15 16 17 17 17 18 18 19 20 20 21 21 22 23 25 27 27 28 28 28 28 28 28 28 28 28 28 28 29 28 27 25 24 23 23 23 23 21 21 23 24 23 22 21 22 23 23 24 24 26 26 24 23 23 23 23 23
9 8 7 6 6 5 5 5 5 4 4 5 5 5 6 7 7 7 8 9 10 10 11 12 13 14 14 14 14 15 17 18 19 21 21 21 21 21 22 23 24 25 27 28 28 29 29 30 30 30 30 30 30 30 30 30 30 30 29 28 27 25 24 23 23 22 22 23 23 24 24 22 22 23 23 25 25 27 27 26 26 25 24 24 24
8 8 6 5 5 5 5 5 5 5 5 4 5 5 6 6 6 7 8 9 9 10 12 14 15 17 17 17 16 15 15 16 17 20 21 21 21 22 23 24 25 25 27 28 29 29 31 31 31 31 31 31 32 32 32 32 31 31 31 30 30 28 27 25 24 23 23 23 24 24 25 24 24 24 24 25 26 27 28 29 29 28 26 25 25
8 6 5 5 5 5 5 5 5 5 5 5 6 6 5 5 6 7 7 8 9 12 14 16 17 18 18 18 18 17 16 15 15 16 17 18 18 20 22 23 24 25 26 27 28 29 30 31 31 31 32 32 33 33 33 33 33 33 33 32 32 31 30 28 26 25 25 24 24 25 26 26 25 24 24 25 27 27 28 29 30 28 27 26 25
7 5 5 5 5 5 5 5 6 6 6 7 6 6 5 5 5 6 6 7 10 13 16 17 18 19 19 19 19 18 18 17 16 15 15 16 17 18 19 20 21 22 23 24 24 25 27 28 29 29 30 31 32 32 33 33 33 33 33 33 33 32 32 31 29 28 28 27 25 25 27 27 27 26 25 25 26 27 27 28 28 25 25 26 26
7 5 5 5 4 4 5 6 6 7 7 7 6 5 5 4 4 5 6 8 11 14 17 18 19 19 19 20 20 20 20 19 18 17 15 16 18 19 20 22 22 21 22 22 23 23 25 26 27 28 29 30 31 32 32 33 33 33 34 33 33 33 33 32 32 30 30 30 29 27 27 28 28 28 28 26 26 27 27 28 28 24 23 25 26
7 6 5 5 5 4 5 6 7 8 8 7 6 5 4 4 3 4 7 9 12 15 17 18 19 19 20 21 22 22 22 22 22 21 19 18 18 19 21 23 25 24 24 24 24 24 25 26 27 28 29 30 31 32 32 33 34 34 34 35 34 34 33 33 33 32 31 32 32 30 29 29 30 30 30 28 27 27 27 27 27 26 24 25 26
8 6 5 5 5 5 6 7 7 8 7 7 6 5 4 3 4 5 8 11 13 15 16 17 18 19 20 22 23 24 25 25 25 24 23 22 20 20 19 21 24 27 28 27 27 27 28 28 29 30 30 31 32 32 33 33 34 35 35 36 35 35 34 33 33 32 32 33 34 33 32 31 32 32 31 29 28 27 28 27 28 28 27 26 27
7 6 5 4 5 5 6 7 7 7 7 7 6 5 4 4 5 7 10 12 13 14 16 17 18 19 21 22 24 25 25 25 25 24 24 23 22 22 21 21 22 24 27 30 31 31 31 31 31 32 32 32 33 33 34 34 34 35 35 36 37 36 36 35 33 33 32 33 34 35 35 33 32 33 33 32 30 28 29 29 28 29 29 28 28
6 5 4 5 5 5 6 7 7 7 7 7 6 5 5 5 7 9 11 13 14 15 16 17 18 19 21 22 23 24 24 24 24 24 23 23 22 21 21 21 22 23 24 27 29 31 33 33 34 34 34 34 34 34 35 35 35 35 35 36 37 37 37 37 35 34 33 32 33 35 36 35 34 34 34 33 32 30 30 30 30 30 30 30 30
6 5 5 5 5 5 6 6 7 7 7 7 6 6 6 7 9 11 12 14 15 16 17 18 19 20 21 22 23 24 25 25 25 25 25 24 24 23 23 22 22 23 24 25 27 29 31 33 34 34 35 35 35 35 35 36 37 37 37 37 37 37 38 38 38 37 35 34 33 34 35 36 35 35 35 35 34 33 32 31 31 31 31 32 32
6 5 5 5 5 5 5 6 6 7 7 7 7 7 8 9 11 12 14 15 16 17 18 19 20 21 22 23 24 25 25 26 26 26 26 26 25 24 24 24 24 24 25 25 26 27 29 31 32 33 34 34 34 35 35 36 36 37 38 38 38 38 38 39 39 39 38 37 35 35 35 35 36 36 37 37 36 35 35 33 33 32 32 33 33
6 6 5 5 4 5 5 6 6 7 7 8 8 8 9 11 12 13 15 16 17 18 19 20 20 21 22 23 24 25 26 26 27 26 26 26 25 24 23 23 24 25 26 26 26 27 27 28 30 32 32 33 34 34 34 35 35 36 37 37 38 39 39 39 39 39 40 39 38 37 36 36 35 36 37 39 39 38 37 37 35 33 34 34 33
6 6 5 5 4 5 5 6 7 8 8 9 9 10 11 12 13 14 16 17 18 19 20 20 21 22 23 24 24 25 26 27 27 26 26 26 26 26 26 25 24 24 26 26 26 28 28 27 28 31 32 32 33 34 35 36 36 36 37 37 38 38 39 39 40 39 40 40 40 40 39 38 37 36 37 38 40 40 39 39 38 36 36 35 34
6 6 5 4 5 5 6 7 8 9 9 10 10 11 12 13 14 15 17 18 19 20 20 21 22 23 23 24 25 25 26 26 26 26 26 26 27 28 29 29 29 27 27 27 26 27 29 30 29 29 32 34 35 35 36 37 38 39 39 39 39 39 39 40 40 40 40 40 41 41 40 40 39 38 38 37 39 41 41 41 41 39 38 37 36
6 6 5 5 6 6 7 8 9 10 10 11 12 13 14 14 15 16 17 18 19 20 21 21 22 23 23 24 25 25 25 25 25 25 26 27 29 30 31 32 32 32 31 31 30 29 28 30 31 31 31 33 35 36 36 38 39 41 42 42 42 42 41 41 41 41 41 41 41 42 42 41 40 40 39 39 39 40 41 43 43 42 41 39 37
7 6 6 6 7 8 9 10 10 11 12 12 13 14 14 15 16 17 17 18 19 20 21 21 22 22 23 24 24 24 24 24 25 26 27 29 30 31 32 32 33 33 33 33 33 33 31 30 32 33 32 32 33 35 36 37 38 40 42 43 43 44 44 43 43 42 43 42 42 43 43 42 42 41 41 40 40 40 40 42 44 44 43 41 39
7 6 7 7 8 9 10 11 11 12 13 13 14 14 14 15 16 17 17 18 19 20 20 21 21 22 23 23 23 23 23 24 25 27 28 30 31 31 32 32 32 33 33 32 32 34 35 33 32 34 34 34 34 35 36 37 38 39 41 41 42 43 44 44 44 43 43 43 43 43 43 43 43 42 42 42 41 41 41 41 44 46 46 45 42
7 6 7 7 9 10 11 12 12 13 14 14 14 14 15 15 16 17 17 18 19 19 20 20 21 22 22 22 22 22 23 24 26 27 28 29 30 31 31 32 32 32 32 32 32 32 35 36 36 36 37 36 36 37 37 38 38 39 40 40 41 41 42 42 43 43 43 43 42 42 42 43 43 43 42 42 43 43 42 42 42 45 48 49 47
8 8 8 8 9 10 11 12 13 14 14 14 14 15 15 15 16 16 17 17 18 18 19 20 21 22 22 22 22 22 23 25 26 27 28 28 29 30 31 32 32 33 33 33 33 33 34 35 36 37 38 39 39 39 40 40 40 39 38 37 38 39 39 40 40 40 42 42 42 41 40 40 41 42 42 42 43 44 44 44 43 44 47 50 51
10 10 10 10 10 11 12 13 14 14 14 14 15 15 15 15 15 16 16 17 17 18 19 20 21 21 21 21 22 22 23 25 25 26 27 28 28 29 30 31 31 33 34 35 35 35 35 36 36 37 37 39 40 41 42 43 44 42 39 35 34 35 36 37 37 38 39 40 41 41 40 39 39 40 40 41 42 44 45 45 45 44 45 48 52
12 12 11 11 11 11 12 13 14 14 14 14 14 14 14 15 15 15 15 16 17 18 19 20 20 20 20 21 22 22 23 24 25 26 27 27 28 29 29 30 31 32 34 36 36 37 38 38 38 39 39 40 41 42 43 45 46 45 41 35 32 31 32 34 35 35 36 38 39 40 41 41 40 40 40 40 41 42 44 46 46 46 45 46 49
14 13 12 12 11 12 13 13 13 13 14 14 14 14 14 14 14 14 15 15 17 18 19 19 19 19 20 21 21 22 23 24 25 25 26 27 27 28 29 30 31 32 33 35 36 38 39 39 39 40 41 42 43 44 45 46 47 46 41 36 32 31 30 32 33 33 34 35 37 39 40 42 42 41 40 40 40 40 41 44 46 47 46 46 47
14 14 13 12 12 13 13 13 13 13 13 13 13 13 12 12 13 13 14 15 17 18 19 19 19 19 19 20 21 22 23 24 24 25 25 26 27 28 29 30 30 32 33 34 36 37 39 39 40 40 41 42 43 45 46 48 49 48 42 36 33 33 32 31 32 32 32 33 34 36 38 39 41 42 41 40 39 39 39 41 43 46 47 46 46
15 14 13 13 13 13 13 12 12 13 12 12 12 12 11 11 12 13 14 16 17 18 18 18 18 18 19 19 20 21 22 23 24 24 25 26 27 28 28 29 30 31 33 34 36 37 38 39 40 41 42 43 44 46 48 49 51 51 47 39 35 35 35 34 33 33 33 33 33 34 35 37 38 40 41 41 41 39 38 38 40 43 45 46 46
16 15 14 13 13 12 12 12 12 12 12 11 11 10 10 11 12 13 14 15 17 17 17 17 17 18 18 19 20 21 22 22 23 24 25 26 27 28 28 29 31 32 34 35 37 38 38 39 40 42 43 44 46 47 49 50 51 51 50 46 41 39 39 38 37 35 35 33 32 31 32 34 35 37 39 41 42 42 40 38 37 39 42 44 46
16 15 14 13 12 12 12 12 12 11 11 10 10 9 9 10 11 12 14 15 16 16 16 16 17 18 18 19 20 21 22 22 23 24 25 26 26 27 28 30 31 33 35 36 37 38 39 40 41 42 44 45 46 47 49 51 53 53 51 49 47 45 44 43 41 38 36 33 31 29 29 30 31 31 34 37 39 42 42 40 37 37 39 41 43
16 15 14 13 12 12 12 12 11 11 10 9 8 8 9 10 11 12 14 15 15 15 15 16 16 17 18 19 20 21 22 23 24 24 25 26 27 28 29 31 33 35 36 38 39 39 41 42 43 44 45 46 48 49 50 53 55 55 52 49 49 50 49 46 42 38 35 34 31 27 26 28 29 27 29 32 35 39 42 42 40 38 37 39 41
16 14 13 13 12 12 12 11 11 9 8 8 8 8 8 9 11 12 14 14 14 14 15 15 16 17 18 19 20 21 22 22 23 24 26 27 28 30 31 33 35 36 38 39 40 41 42 43 44 45 46 47 48 50 51 53 54 54 53 52 52 52 51 49 44 39 36 35 33 28 26 27 29 28 28 29 32 36 39 41 41 40 38 37 38
15 14 13 13 12 12 12 11 10 8 8 7 7 7 8 9 11 12 13 13 13 14 14 15 15 16 17 18 19 20 21 22 23 24 25 27 29 30 33 35 36 38 39 40 41 42 43 44 45 47 47 48 49 49 51 52 53 54 53 53 54 54 53 51 48 43 40 39 37 35 34 31 30 30 29 29 31 34 37 39 39 39 39 38 37
15 14 14 13 12 12 11 10 9 8 7 7 7 7 8 9 11 12 12 12 12 13 13 14 15 15 16 17 18 19 20 21 22 24 25 26 28 30 32 34 36 37 39 40 42 43 44 45 46 47 48 49 49 49 51 53 54 54 53 53 54 54 52 52 50 46 45 44 42 41 40 34 30 29 27 26 27 28 32 36 38 37 37 37 37
15 15 14 13 12 11 10 9 8 8 7 6 6 7 8 9 11 11 11 11 11 12 12 13 14 15 15 16 16 17 19 20 22 23 24 26 28 30 32 33 34 36 37 39 41 42 44 45 46 48 49 49 49 50 51 52 54 55 54 54 53 52 51 51 49 47 46 46 46 45 41 34 29 28 24 22 24 24 25 29 34 35 34 34 34
15 15 14 12 11 10 9 9 8 7 7 6 6 6 8 9 10 10 10 10 10 10 11 12 13 13 14 14 15 16 18 19 21 22 24 25 27 29 31 32 33 35 36 37 39 41 42 44 45 47 48 49 49 49 50 51 53 54 54 55 54 52 50 48 47 46 45 47 49 47 40 34 30 27 25 24 23 22 21 23 28 31 31 30 30
15 14 13 12 11 10 9 9 8 7 6 6 6 6 8 9 9 9 9 9 9 9 10 10 11 11 12 12 14 16 17 19 20 22 23 25 27 28 30 31 33 34 36 37 39 40 42 43 44 45 47 48 48 49 49 49 50 51 52 53 52 51 49 47 45 44 44 47 51 49 42 36 31 27 25 25 22 19 18 18 20 24 25 25 25
14 13 12 11 10 10 10 10 9 7 6 6 6 7 8 9 8 8 8 8 8 8 8 9 9 9 10 11 13 15 17 19 20 22 23 25 27 28 29 30 31 33 34 36 38 39 40 41 42 43 44 45 46 48 48 48 49 50 50 50 51 52 52 50 48 47 47 48 51 52 46 36 28 25 23 21 21 20 18 14 12 15 17 19 20
13 12 11 11 11 11 11 10 9 8 7 6 6 7 8 8 7 7 7 7 7 7 7 7 7 7 8 11 13 15 17 19 20 22 24 25 26 27 28 29 30 31 32 33 35 36 38 39 39 40 41 42 44 46 47 48 49 49 50 50 52 55 56 55 54 51 50 49 51 53 49 36 26 22 19 19 22 21 17 13 8 6 9 13 15
14 12 11 11 11 12 11 10 9 8 7 6 6 7 7 7 6 6 6 6 6 5 5 6 6 6 8 10 13 15 17 18 20 22 23 25 26 27 28 30 31 31 32 33 34 35 36 36 37 37 38 40 42 44 46 48 49 50 51 52 54 55 56 58 57 53 49 48 50 52 50 41 29 22 18 19 21 20 17 15 10 2 4 9 12
14 13 13 13 13 12 12 10 9 8 6 6 7 7 7 6 5 5 5 5 4 4 4 4 4 5 7 10 13 15 16 18 20 22 23 25 26 27 28 30 31 32 33 35 36 36 36 37 37 37 38 39 41 42 45 47 49 50 51 52 53 54 56 57 57 55 52 51 51 50 48 43 35 27 23 20 16 14 13 13 10 6 1 5 9
Wind_Direction
250 253 258 264 270 275 277 279 282 283 279 277 282 286 288 291 294 296 298 299 299 301 304 305 304 303 302 301 301 300 299 299 298 298 298 299 300 301 302 303 304 304 304 303 303 304 305 308 306 306 308 309 312 312 309 309 307 305 304 300 293 292 290 280 270 268 272 278 281 282 284 288 294 297 297 296 294 292 286 279 274 270 266 263 258
247 252 260 267 270 274 276 277 279 280 281 283 286 292 298 303 305 307 307 306 306 307 308 307 306 305 303 301 300 299 298 296 295 296 298 300 302 304 306 307 307 306 306 305 304 303 305 308 305 305 307 309 313 312 311 311 309 309 310 307 298 293 290 282 273 271 274 277 280 281 282 285 289 293 294 294 293 291 285 277 273 268 264 262 258
246 252 259 265 268 270 269 269 271 277 284 289 294 301 307 310 309 308 307 306 306 306 305 304 303 301 301 300 300 299 299 299 301 303 306 308 310 311 311 312 312 312 311 310 309 308 310 310 308 308 310 312 313 313 313 313 312 313 311 306 298 292 291 286 278 273 274 275 276 277 279 281 284 288 291 292 292 290 285 275 270 268 263 259 257
247 253 257 261 265 263 260 260 263 271 285 297 306 307 306 306 304 302 302 303 305 307 307 306 303 303 304 305 306 308 311 314 317 320 321 321 321 320 318 318 318 318 318 317 315 315 314 311 310 309 310 313 314 314 317 317 315 314 311 306 299 291 288 287 283 277 276 275 274 273 275 278 281 284 288 290 290 288 284 274 266 265 261 258 256
247 251 253 255 257 257 255 259 266 276 290 304 304 300 301 301 301 303 307 310 312 314 314 312 311 312 315 317 321 325 326 327 329 330 329 328 327 325 323 323 323 323 323 322 321 320 317 313 312 311 312 314 314 313 315 318 317 314 313 310 302 295 290 286 284 281 278 276 275 274 273 276 278 280 284 288 289 288 284 274 264 260 259 256 255
244 246 248 248 246 249 256 266 278 284 290 300 298 296 302 305 310 316 319 319 320 322 321 320 321 322 325 330 334 333 332 332 332 332 330 328 328 328 329 328 327 325 325 324 322 320 319 318 317 317 318 319 317 315 314 317 318 315 316 313 307 300 293 288 285 281 279 278 278 276 275 275 276 277 279 283 286 287 285 277 265 257 256 254 253
241 244 244 240 237 243 254 267 277 276 278 291 296 299 307 315 324 327 326 329 330 332 332 330 328 329 333 339 339 335 335 334 333 332 329 328 329 330 330 328 326 325 324 323 321 320 319 318 319 319 321 322 322 320 317 319 319 317 317 313 308 302 293 289 287 283 280 278 276 277 277 275 274 273 274 276 279 281 282 278 269 257 253 252 250
241 244 240 232 230 239 247 252 259 264 276 289 296 301 309 319 327 330 333 339 340 339 339 337 334 335 340 343 340 338 339 337 334 331 328 327 328 328 328 326 324 323 321 320 318 318 317 318 318 318 319 320 321 320 319 319 319 319 317 312 308 304 297 291 289 287 283 279 274 272 275 275 273 271 270 272 273 274 275 275 270 260 253 252 250
244 244 236 227 227 234 242 244 253 267 282 294 300 303 309 321 331 337 343 348 344 340 338 338 338 338 341 343 340 339 340 338 335 331 328 326 326 327 327 326 324 321 318 316 315 315 315 316 317 317 316 317 317 317 317 317 316 317 315 311 309 306 301 295 292 290 286 282 274 270 271 271 271 270 268 269 269 269 270 270 267 261 254 252 250
246 243 231 225 226 233 241 248 261 276 290 298 301 303 311 327 340 346 350 350 344 340 339 339 341 338 339 340 337 335 335 335 333 329 326 326 326 327 326 325 323 320 318 316 315 315 314 314 314 314 314 314 314 313 314 315 316 314 310 309 309 308 304 300 298 295 289 283 277 272 269 267 267 269 269 267 267 267 267 266 263 259 252 250 250
246 238 226 225 232 240 245 251 264 281 291 296 298 303 316 333 344 348 351 349 343 344 345 342 341 339 339 340 336 333 332 332 330 327 325 325 324 324 323 322 321 319 317 315 315 313 312 312 311 311 312 312 312 312 313 314 314 312 310 309 307 307 307 306 304 299 293 289 284 278 273 269 267 268 268 265 263 265 265 264 262 257 250 246 247
239 226 220 229 238 245 253 261 273 282 286 289 295 304 321 334 338 342 346 350 349 349 349 347 344 340 338 340 341 336 333 333 331 326 324 323 322 321 320 319 318 315 313 311 310 309 309 309 309 310 310 310 310 310 311 311 311 311 310 308 305 305 306 307 308 306 301 295 289 284 280 275 268 265 266 263 260 260 260 259 259 257 250 244 243
223 216 221 232 237 246 258 269 273 273 276 282 293 307 322 330 332 337 345 350 352 351 351 351 349 343 336 336 338 336 332 330 326 321 320 320 319 318 316 314 313 310 308 307 306 306 306 307 307 308 307 307 307 307 307 307 308 308 307 306 303 302 301 303 305 305 304 298 292 287 283 278 270 265 266 265 262 260 257 254 254 254 250 244 241
210 214 223 228 235 248 261 269 268 265 274 284 298 311 317 322 327 335 344 349 355 359 357 354 351 347 340 333 331 329 326 324 319 316 316 317 317 315 313 310 308 306 305 304 305 305 305 306 306 306 306 305 305 304 303 303 303 304 304 303 301 299 298 298 299 298 297 296 295 292 288 281 273 268 266 266 264 262 260 255 251 250 248 244 239
210 217 222 227 240 257 267 272 272 271 282 295 304 307 309 315 323 334 346 354 4 8 3 357 351 347 344 338 332 325 321 320 318 316 318 319 316 313 309 307 305 305 304 304 304 305 305 306 306 306 305 304 303 302 301 300 300 300 300 299 299 297 295 294 294 293 289 289 292 293 292 288 281 275 269 266 265 264 263 258 251 247 245 242 238
212 217 222 233 250 265 277 281 281 284 292 301 300 299 302 310 323 340 353 1 8 7 2 358 354 351 348 344 340 334 328 324 320 317 318 318 315 311 308 306 305 304 304 304 305 306 307 307 307 307 305 304 303 302 301 300 299 298 297 297 296 295 293 290 288 288 286 285 287 289 290 290 288 285 276 268 266 265 264 261 253 246 241 240 238
211 218 229 243 258 273 283 284 286 292 297 299 296 296 301 316 333 347 356 3 3 360 359 359 358 356 353 350 348 345 342 338 332 327 325 322 316 313 310 307 307 306 304 304 304 306 306 305 306 306 306 304 303 303 302 301 299 298 296 295 294 292 291 289 286 284 282 280 280 283 286 287 289 289 282 274 269 266 265 265 262 254 245 241 239
216 230 240 251 268 278 281 282 287 293 297 297 297 301 314 332 344 351 357 356 354 355 358 360 360 358 356 354 351 349 347 344 341 340 339 334 326 322 317 312 311 310 308 307 307 307 305 304 305 305 305 305 304 304 303 302 300 299 297 294 292 290 288 287 285 283 281 278 276 276 279 282 284 285 283 280 275 270 267 265 267 264 255 247 242
225 239 247 262 277 281 281 282 287 292 295 296 300 311 327 340 347 352 352 349 350 354 357 357 357 358 358 356 353 351 348 345 342 341 341 338 333 330 327 322 319 316 314 313 312 310 307 306 307 307 306 305 305 305 304 303 302 301 299 297 294 291 288 286 283 281 279 278 275 273 272 275 278 279 279 280 277 272 268 264 264 262 256 249 244
229 239 251 268 277 277 277 280 286 291 294 298 306 317 329 336 342 345 343 345 350 353 353 352 353 355 356 355 354 352 349 346 344 342 340 339 335 332 330 327 325 323 321 319 318 316 313 312 311 310 309 308 307 305 305 304 303 302 300 299 297 295 292 289 286 282 278 276 275 273 270 270 273 274 275 276 276 274 269 264 261 258 254 250 245
228 236 250 266 270 271 275 281 287 291 296 302 309 316 317 320 330 337 340 345 348 348 346 346 347 349 351 352 352 351 350 347 344 342 339 337 333 329 326 324 322 322 322 323 323 321 319 317 316 314 312 311 309 307 306 304 302 301 300 299 298 296 294 292 289 285 281 276 274 272 270 268 269 271 272 272 273 273 271 266 262 258 256 253 249
228 239 253 265 269 272 279 285 290 295 300 304 305 304 302 313 328 336 341 343 343 341 340 340 342 344 347 349 350 349 347 344 341 338 335 334 332 330 326 322 318 317 317 318 320 320 319 318 316 315 313 311 309 308 306 304 302 300 299 298 297 296 294 292 290 288 284 280 275 272 269 267 266 267 268 269 270 270 269 268 265 260 256 253 250
229 242 254 263 270 276 282 287 293 299 302 301 299 299 305 318 327 332 336 337 336 335 335 335 337 341 344 346 346 344 342 340 337 335 333 333 332 330 329 327 324 320 316 316 317 317 317 316 316 315 313 312 310 308 306 304 303 301 299 298 296 295 294 292 291 288 285 282 278 275 271 266 263 262 264 266 266 265 265 265 264 261 255 251 249
227 240 250 259 267 274 281 289 297 301 302 301 303 305 311 316 321 326 329 330 330 329 329 331 334 338 341 341 341 340 339 337 335 334 333 334 335 335 334 333 330 326 322 320 319 317 316 315 315 314 313 313 311 309 308 306 304 302 300 299 297 295 293 292 291 289 286 283 280 277 273 269 263 259 259 261 263 263 262 260 260 260 257 253 251
225 237 246 254 264 273 283 294 300 303 304 304 306 306 308 311 315 321 324 324 325 325 326 328 331 334 336 337 338 337 337 335 335 335 335 335 337 336 335 334 333 329 325 323 321 318 318 316 314 314 313 312 312 311 310 308 306 304 302 300 298 296 294 292 290 289 287 284 280 277 274 272 267 261 256 256 257 259 259 257 256 257 258 256 253
224 233 244 252 266 278 289 300 303 305 305 304 303 302 304 308 312 318 320 321 321 321 322 325 328 331 332 334 335 336 336 336 335 335 335 335 334 333 334 336 335 332 329 327 326 322 321 320 317 315 315 314 314 313 312 311 309 307 305 303 301 298 296 294 291 289 287 285 282 278 275 272 269 265 259 254 252 253 256 257 254 253 254 255 255
223 230 242 254 271 285 295 302 305 305 303 300 300 300 303 307 312 316 318 318 318 318 320 323 327 329 331 333 335 336 336 335 335 335 335 334 334 334 335 335 336 334 331 331 333 329 325 327 325 321 320 319 318 318 317 315 312 310 308 305 303 300 298 296 293 290 287 285 283 280 277 273 270 267 263 257 251 249 250 254 254 251 250 251 252
225 232 246 260 275 286 296 301 304 303 301 301 301 302 305 308 312 314 315 315 315 316 319 323 326 328 331 333 334 335 335 335 335 335 336 336 337 338 338 338 339 340 338 335 336 337 331 328 330 329 325 323 323 322 321 318 316 313 311 308 305 302 299 296 294 291 288 286 283 281 278 275 271 268 264 261 255 250 246 248 252 251 249 248 249
229 238 252 264 272 282 291 297 301 303 303 305 304 305 307 309 311 312 312 312 313 316 320 323 326 328 330 332 333 334 335 336 336 336 338 340 341 341 342 343 342 343 344 341 339 341 340 333 330 331 330 326 324 324 323 321 318 316 313 311 308 304 301 298 294 292 288 285 283 281 279 276 273 270 266 262 259 254 248 244 246 249 249 246 246
233 241 252 262 271 280 287 293 299 303 305 306 305 306 308 308 309 309 310 311 313 318 321 323 326 328 330 331 333 335 336 337 338 340 342 343 343 344 343 344 345 344 345 346 342 341 342 340 334 332 334 331 327 327 326 324 321 318 315 312 309 306 303 300 296 293 289 286 283 280 279 276 273 270 267 264 260 257 252 246 242 243 246 246 244
233 241 251 262 272 279 285 291 298 301 303 304 305 306 306 305 306 307 309 312 315 318 321 323 325 327 330 333 334 336 338 340 342 343 345 345 345 345 345 345 346 346 345 346 346 343 341 343 341 338 339 338 335 332 332 330 326 322 318 314 311 307 304 301 298 295 291 287 284 281 278 276 274 270 267 265 262 258 254 250 243 240 241 244 244
235 243 252 263 272 277 284 290 295 298 301 304 305 304 304 304 306 308 309 312 316 319 322 323 326 329 332 334 336 339 341 344 345 346 347 347 346 347 347 346 345 346 345 345 348 349 346 345 345 343 342 342 340 337 336 336 333 329 324 318 313 309 305 302 299 297 294 291 288 284 280 277 275 272 268 264 262 259 255 252 247 241 238 240 243
243 251 258 265 272 277 284 289 293 298 300 302 303 302 304 306 306 307 310 314 318 320 322 325 329 332 334 336 339 343 345 346 346 348 348 348 349 349 348 347 346 345 346 346 348 350 350 348 346 345 343 343 342 341 340 340 338 335 329 322 316 311 307 304 302 300 297 295 293 290 287 282 278 276 272 266 262 259 257 253 249 244 239 237 239
249 256 261 266 273 279 284 289 293 296 298 300 302 303 305 305 305 308 313 317 319 321 325 329 332 334 336 340 344 345 346 347 348 349 350 350 350 349 348 348 348 347 347 348 348 350 351 350 348 347 345 344 343 344 344 343 342 339 334 327 318 312 308 305 303 301 299 298 297 296 294 290 285 280 277 272 265 259 256 254 251 247 242 238 236
253 258 264 269 275 280 284 288 290 294 298 300 302 303 303 303 306 311 315 318 321 324 329 332 334 337 341 344 345 346 347 349 350 351 351 351 350 349 349 349 350 350 349 349 350 350 351 352 350 348 347 347 347 346 346 346 345 343 338 332 324 317 313 309 304 301 299 298 297 297 296 294 290 285 280 276 270 263 257 254 252 249 245 240 236
256 260 265 270 277 281 282 285 289 294 298 299 300 300 301 304 309 313 316 319 324 328 332 334 338 342 345 346 346 347 349 351 352 352 351 352 351 350 350 351 351 352 352 352 352 352 352 353 353 351 349 350 350 349 348 347 347 345 341 335 328 323 320 317 311 305 301 298 296 295 294 293 291 288 284 278 274 269 261 255 252 250 247 243 238
259 262 266 271 276 278 279 283 289 294 296 296 297 298 301 306 309 313 318 323 327 331 334 337 341 344 345 346 347 349 352 352 352 352 352 352 352 351 351 351 352 353 355 356 355 355 354 354 354 353 351 351 351 351 350 349 348 346 344 340 334 329 326 324 318 311 307 304 299 295 291 289 288 287 285 281 276 272 266 259 254 251 249 245 240
260 263 268 271 272 274 278 283 288 290 291 293 294 296 301 306 310 316 321 326 331 334 337 340 344 345 345 347 350 352 354 353 352 352 353 353 353 353 352 353 354 355 357 358 357 357 356 356 355 355 354 353 353 353 353 352 350 347 344 343 340 335 332 329 324 319 315 312 306 300 294 288 284 282 281 280 278 274 269 263 257 252 250 247 243
262 264 266 267 268 272 277 281 284 287 288 289 291 295 301 306 312 319 324 330 334 336 339 343 344 345 346 348 352 354 354 354 354 354 354 354 354 354 354 355 357 358 359 360 360 358 357 358 358 357 356 356 355 355 355 353 353 351 348 345 344 341 339 339 336 328 323 320 314 309 302 294 287 281 277 276 276 274 270 266 260 254 251 248 245
260 261 261 263 267 270 274 278 281 282 283 285 288 294 301 308 315 322 328 333 336 337 341 344 343 344 348 351 353 354 355 355 356 357 357 357 357 357 358 359 360 1 1 1 1 0 359 359 0 0 359 358 357 357 356 354 354 354 353 350 348 346 345 347 346 337 330 327 324 320 312 301 292 284 279 276 275 273 270 266 261 255 251 249 246
257 257 258 261 263 266 270 274 275 276 277 280 286 294 302 310 318 326 331 333 336 340 343 343 344 347 350 354 355 356 357 358 359 359 360 359 359 360 1 2 4 4 4 3 3 2 2 1 2 2 1 360 359 358 358 358 357 356 355 353 353 352 349 350 351 345 337 334 335 333 322 307 296 288 282 277 275 273 271 267 262 256 251 248 246
254 255 256 256 258 262 267 269 269 270 272 277 285 295 304 314 322 328 331 334 338 342 343 343 346 351 355 357 358 359 0 2 3 3 3 3 3 4 5 6 6 6 6 5 4 5 5 4 3 3 3 2 1 360 0 1 359 357 357 357 357 356 353 351 354 353 345 340 339 339 332 317 303 294 286 279 275 273 273 271 266 259 252 248 245
250 249 249 250 254 259 263 263 263 264 268 275 285 296 306 317 324 328 331 336 340 342 343 345 350 356 360 0 0 2 4 5 7 7 8 8 9 9 10 9 8 7 6 5 6 7 7 7 5 5 4 3 2 2 1 1 1 0 1 2 1 359 356 353 354 355 352 347 343 341 337 327 313 303 295 285 278 273 271 272 271 265 257 249 245
243 242 243 247 252 256 258 259 258 259 265 273 283 296 309 318 324 328 333 338 342 342 344 350 356 0 3 2 2 6 8 10 11 11 12 12 12 12 13 12 10 8 6 5 6 7 8 8 7 6 5 4 3 3 3 2 2 2 3 5 5 3 359 356 355 356 355 352 348 344 341 336 327 320 310 294 284 277 269 266 268 268 262 253 246
235 236 241 246 250 253 253 254 253 254 261 271 281 296 311 319 324 330 335 338 340 342 347 355 0 3 4 4 6 11 14 15 16 15 14 14 14 14 14 12 10 9 8 7 7 7 8 8 8 7 5 4 4 3 4 4 3 3 5 6 7 6 3 359 357 357 357 356 353 349 347 343 338 335 328 311 297 289 276 264 261 263 262 255 247
231 233 239 244 248 249 248 247 246 248 256 268 282 299 312 320 325 330 333 335 338 344 353 360 4 6 6 6 12 17 19 18 18 16 15 15 15 15 13 11 9 8 7 6 6 8 8 8 8 7 6 5 4 4 4 5 5 5 6 6 7 8 7 4 1 359 0 2 360 356 352 347 342 338 335 329 318 304 288 270 259 258 258 254 247
228 232 238 243 245 243 239 238 240 245 253 266 282 299 311 319 324 326 328 333 339 348 357 4 7 7 7 12 19 22 21 20 18 16 14 14 14 15 12 9 7 6 5 5 6 7 8 7 7 6 5 5 4 4 4 5 6 7 9 8 7 8 9 10 7 3 4 7 6 2 357 350 345 340 337 339 340 331 312 287 264 256 255 251 243
226 230 235 240 241 235 231 230 234 241 247 259 280 299 311 315 317 320 324 331 340 350 1 7 8 8 12 19 24 24 22 20 17 15 13 13 13 12 10 8 7 6 4 4 5 6 6 6 6 5 5 4 4 4 4 5 6 7 9 9 9 9 11 12 13 9 8 10 11 7 2 356 353 351 346 342 338 333 329 315 280 255 251 246 236
221 227 230 233 232 227 225 227 231 236 242 256 280 298 305 307 308 313 321 328 338 352 5 9 8 10 19 25 25 24 22 18 16 14 12 11 11 9 7 5 5 5 4 5 5 5 5 5 5 4 4 3 4 5 5 5 6 6 7 9 11 12 12 12 14 13 10 11 13 10 6 4 1 359 354 341 332 332 339 341 321 254 233 230 224
214 220 223 224 224 221 223 227 228 230 239 259 280 292 294 295 300 308 315 324 338 356 8 10 9 14 23 27 26 24 20 16 14 12 10 9 8 6 4 3 2 2 2 4 5 5 4 4 3 3 3 3 4 5 6 6 6 6 7 9 12 14 14 13 14 14 12 13 15 13 10 8 3 358 351 338 332 337 348 353 353 343 203 206 211
211 215 216 215 215 216 219 224 225 228 241 261 275 282 284 285 291 299 308 320 338 358 8 8 9 17 24 27 26 22 18 14 12 10 8 6 5 3 2 2 0 359 1 2 3 3 2 1 1 1 2 3 4 5 7 8 8 6 7 9 11 14 16 15 14 13 13 16 17 16 14 12 9 3 357 351 346 343 349 359 9 13 38 185 197